Printer-friendly version

IAU Minor Planet Center

Minor Planet Center

MPEC 2005-R35 : 2005 RK3

The following Minor Planet Electronic Circular may be linked-to from your own Web pages, but must not otherwise be redistributed electronically.


Read MPEC 2005-R34 Read MPEC 2005-R36


M.P.E.C. 2005-R35                                Issued 2005 Sept. 6, 21:18 UT

     The Minor Planet Electronic Circulars contain information on unusual
         minor planets and routine data on comets.  They are published
   on behalf of Commission 20 of the International Astronomical Union by the
          Minor Planet Center, Smithsonian Astrophysical Observatory,
                          Cambridge, MA 02138, U.S.A.

                  Supported in part by the Brinson Foundation
             Prepared using the Tamkin Foundation Computer Network

                              MPC@CFA.HARVARD.EDU
          URL http://cfa-www.harvard.edu/iau/mpc.html  ISSN 1523-6714

                                   2005 RK3

Observations:
     K05R03K* C2005 09 06.13329 20 57 07.85 -18 22 03.8          15.7 R ER035699
     K05R03K  C2005 09 06.14961 20 57 12.38 -18 17 49.0                 ER035699
     K05R03K  C2005 09 06.18225 20 57 21.09 -18 09 14.0                 ER035699
     K05R03K  C2005 09 06.79516 21 01 57.21 -15 19 18.7          16.3 V ER035151
     K05R03K  C2005 09 06.79620 21 01 57.55 -15 19 01.2          16.5 V ER035151
     K05R03K  C2005 09 06.79743 21 01 57.92 -15 18 40.1          16.4 V ER035151
     K05R03K  C2005 09 06.79838 21 01 58.25 -15 18 24.2          16.3 V ER035151
     K05R03K  C2005 09 06.81637 21 02 02.55 -15 13 13.0          16.1 V ER035595
     K05R03K  C2005 09 06.81706 21 02 02.80 -15 13 01.0                 ER035595
     K05R03K  C2005 09 06.81775 21 02 03.03 -15 12 49.7                 ER035595
     K05R03K  C2005 09 06.86093 21 02 21.46 -14 59 50.6          16.0 R ER035176
     K05R03K  C2005 09 06.86299 21 02 22.09 -14 59 14.6          15.9 R ER035176
     K05R03K  C2005 09 06.86352 21 02 22.22 -14 59 05.8          16.1 R ER035176
     K05R03K  C2005 09 06.86394 21 02 22.37 -14 58 58.2          16.0 R ER035176
     K05R03K  C2005 09 06.86435 21 02 22.47 -14 58 51.3          16.1 R ER035176
     K05R03K  C2005 09 06.86823 21 02 15.89 -14 58 23.9          16   R ER035461
     K05R03K  C2005 09 06.86904 21 02 16.14 -14 58 09.5                 ER035461
     K05R03K IC2005 09 06.86988 21 02 16.42 -14 57 54.9                 ER035461

Observer details:
151 Eschenberg Observatory, Winterthur.  Observer M. Griesser.  0.40-m f/5.9
    Hypergraph + CCD.
176 Observatori Astronomic de Consell.  Observers A. Lopez, R. Pacheco.
    0.41-m f/4 reflector + CCD.
461 Szeged University, Piszkesteto Stn. (Konkoly).  Observer K. Sarneczky.
    0.60-m Schmidt + CCD.
595 Farra d'Isonzo.  Observers M. Spolaor, F. Fabris, G. Lombardi, E. Pettarin.
    0.40-m f/4.5 reflector + CCD.
699 Lowell Observatory-LONEOS.  Observer B. A. Skiff.  0.59-m LONEOS Schmidt
    + CCD.

Orbital elements:
2005 RK3
Epoch 2005 Sept. 7.0 TT = JDT 2453620.5                 MPC
M 348.99811              (2000.0)            P               Q
n   0.70604935     Peri.   16.89344     +0.99980848     -0.00352697
a   1.2490486      Node   343.27331     -0.00563294     +0.89013825
e   0.1862376      Incl.    3.83509     +0.01874221     +0.45567692
P   1.40           H   23.7           G   0.15
From 18 observations 2005 Sept. 6-6.

Ephemeris:
2005 RK3                 a,e,i = 1.25, 0.19, 4                   q = 1.0164
Date    TT    R. A. (2000) Decl.     Delta      r     Elong.  Phase     V
2005 09 07    21 03.28   -14 12.5    0.0174   1.023   149.6    29.9    16.3
2005 09 12    21 50.09   +16 15.6    0.0150   1.019   149.7    29.9    15.9
2005 09 17    22 54.49   +44 31.4    0.0180   1.017   132.1    47.1    16.8
2005 09 22    00 08.85   +58 52.9    0.0245   1.016   120.7    58.1    17.8
2005 09 27    01 16.62   +64 29.2    0.0323   1.017   116.1    62.3    18.5
2005 10 02    02 07.22   +66 16.0    0.0406   1.019   115.1    62.9    19.0
2005 10 07    02 41.04   +66 27.4    0.0490   1.022   116.0    61.5    19.4
2005 10 12    03 02.54   +65 56.5    0.0574   1.026   118.2    59.0    19.7
2005 10 17    03 15.66   +65 03.9    0.0657   1.032   121.0    55.8    19.9
2005 10 22    03 22.92   +63 57.0    0.0741   1.039   124.4    52.3    20.1
2005 10 27    03 25.95   +62 36.5    0.0824   1.047   128.1    48.4    20.2
2005 11 01    03 26.15   +61 01.6    0.0910   1.056   132.0    44.3    20.3
2005 11 06    03 24.78   +59 12.1    0.0999   1.066   136.1    40.2    20.4
2005 11 11    03 22.91   +57 09.6    0.109    1.076   140.1    36.2    20.5
2005 11 16    03 21.23   +54 57.2    0.120    1.088   143.7    32.5    20.6
2005 11 21    03 20.07   +52 38.1    0.131    1.100   146.9    29.4    20.8
2005 11 26    03 19.69   +50 15.1    0.144    1.113   149.2    27.0    20.9
2005 12 01    03 20.29   +47 52.1    0.158    1.126   150.5    25.5    21.1
2005 12 06    03 22.05   +45 32.9    0.173    1.140   150.8    25.0    21.3
2005 12 11    03 25.00   +43 21.2    0.191    1.154   150.0    25.3    21.6
2005 12 16    03 29.03   +41 19.1    0.210    1.168   148.3    26.3    21.8

Timothy B. Spahr             (C) Copyright 2005 MPC           M.P.E.C. 2005-R35

Read MPEC 2005-R34 Read MPEC 2005-R36


Our Web policy. Index to the CBAT/MPC/ICQ pages.


Valid HTML 4.01!